Flag for USA

Past Weather in 37°34'10"N, 97°19'59"W, USA — Yesterday and Last 2 Weeks

Now
81 °F

Clear.


Feels Like: 86 °F
Forecast: 93 / 75 °F
Wind: 6 mph from South

Location: Wichita Eisenhower National Airport

Current Time: Jul 9, 2020 at 4:22:18 am

Latest Report: Jul 9, 2020 at 3:53 am


Visibility: 10 mi

Pressure: 29.77 "Hg

Humidity: 77%

Dew Point: 73 °F

Location of 37°34'10"N, 97°19'59"WLocation

Past Weather in 37°34'10"N, 97°19'59"W — Graph

°F

37°34'10"N, 97°19'59"W Temperature Yesterday

Maximum temperature yesterday: 97 °F (at 3:53 pm)
Minimum temperature yesterday: 72 °F (at 5:53 am)
Average temperature yesterday: 85 °F

High & Low Weather Summary for the Past Weeks

 TemperatureHumidityPressure
High100 °F (Jun 30, 3:53 pm)87% (Jul 2, 6:53 am)30.09 "Hg (Jul 2, 6:53 am)
Low63 °F (Jun 24, 5:53 am)30% (Jul 2, 4:53 pm)29.55 "Hg (Jun 28, 6:53 pm)
Average84 °F61%29.82 "Hg
* Reported Jun 24 2:53 am — Jul 9 2:53 am, 37°34'10"N, 97°19'59"W. Weather by CustomWeather, © 2020

Note: Actual official high and low records may vary slightly from our data, if they occured in-between our weather recording intervals... More about our weather records

37°34'10"N, 97°19'59"W Weather History for the Previous 24 Hours

Scroll right to see more
 ConditionsComfort  
Time TempWeatherWind HumidityBarometerVisibility
2:53 am
Thu, Jul 9
81 °FClear.12 mph74%29.73 "Hg10 mi
1:53 am81 °FClear.13 mph72%29.73 "Hg10 mi
12:53 am82 °FClear.15 mph67%29.75 "Hg10 mi
11:53 pm
Wed, Jul 8
83 °FClear.15 mph63%29.74 "Hg10 mi
10:53 pm85 °FClear.16 mph57%29.74 "Hg10 mi
9:53 pm87 °FClear.15 mph50%29.74 "Hg10 mi
8:53 pm89 °FPassing clouds.15 mph46%29.74 "Hg10 mi
7:53 pm91 °FPassing clouds.14 mph45%29.73 "Hg10 mi
6:53 pm93 °FPassing clouds.18 mph42%29.73 "Hg10 mi
5:53 pm95 °FPassing clouds.17 mph40%29.74 "Hg10 mi
4:53 pm94 °FPassing clouds.15 mph41%29.75 "Hg10 mi
3:53 pm97 °FPassing clouds.16 mph34%29.75 "Hg10 mi
2:53 pm96 °FScattered clouds.13 mph37%29.78 "Hg10 mi
1:53 pm94 °FScattered clouds.18 mph40%29.80 "Hg10 mi
12:53 pm93 °FScattered clouds.16 mph42%29.82 "Hg10 mi
11:53 am90 °FScattered clouds.16 mph50%29.84 "Hg10 mi
10:53 am88 °FBroken clouds.13 mph55%29.85 "Hg10 mi
9:53 am85 °FScattered clouds.12 mph63%29.86 "Hg10 mi
8:53 am81 °FScattered clouds.12 mph72%29.88 "Hg10 mi
7:53 am76 °FScattered clouds.9 mph82%29.88 "Hg10 mi
6:53 am72 °FScattered clouds.5 mph87%29.88 "Hg10 mi
5:53 am72 °FPassing clouds.6 mph84%29.86 "Hg10 mi
4:53 am73 °FClear.7 mph81%29.85 "Hg10 mi
Weather by CustomWeather, © 2020

See weather overview